Погода в Карауле

Погода в Карауле : погода сейчас, прогноз погоды и архив. Всё, что Вы хотите узнать о погоде в Карауле!

Поиск расширенной информации на нашем сайте:

Другие новости

Новости СМИ2

Главная страница сайта

Новости сайта

03.07.2017

Напоминаем, что на нашем специализированном сайте Метеоцентр.Азия вы можете получить высокодетализированные автоматические прогнозы погоды по пунктам России, СНГ и мира в авиационном формате (включающие направление и скорость ветра, видимость, явления погоды, количество и форму облачности, нижнюю и верхнюю границу облачности).


Погода в Карауле - сегодня

Время (UTC), дата Ветер
(°,м/с) 
Видим.   Явления Облачность Т
(°С)
Тd
(°С)
f(%) Тe
(°С)
Pmin
(гПа)
dP
(гПа)
Po
(мм)
O2
(г/м3)
Тmin Tmax R s Состояние
почвы
12 15.04.18 360 (С) 20000 м    6/0 верхняя 
[Ci fib]
-16.9 -20.3 75 -19  992.9  1.2  742  320    -14.6       
15 15.04.18 020 (С) 20000 м    3/0 верхняя 
[Ci fib]
-21.6 -23.4 85 -26  993  0.1  742  326           
18 15.04.18 020 (С) 20000 м    ясно 
-24 -26.5 80 -30  993.1  742  329           
21 15.04.18 340 (С) 20000 м    ясно 
-27.5 -29.9 80 -34  993.4  0.3  742  334           
00 16.04.18 360 (С) 20000 м    3/3 2000 м средняя 
[Ac trans]
-26.1 -28.5 80 -29  994.3  0.9  743  333  -27.7      75  неравномерный
сухой снег
100% 
03 16.04.18 360 (С) 20000 м    5/5 2000 м средняя 
[Ac trans]
-23.1 -25.5 81 -29  995.3  744  329           
06 16.04.18 360 (С) 20000 м    1/1 2000 м средняя 
[Ac trans]
-20.3 -22.8 80 -27  996.5  1.3  745  326           
09 16.04.18 340 (С) 20000 м    1/0 верхняя 
[Ci fib]
-17.5 -20.1 80 -23  998.6  2.1  746  323           
12 16.04.18 340 (С) 20000 м    3/3 2000 м средняя 
[Ac trans]
-17.7 -20.3 80 -24  1001  2.3  748  324    -17.2       
15 16.04.18 340 (С) 4000 м  слаб. снег  10/5 2000 м средняя, верхняя 
[Ac trans|Cs]
-18.2 -20.8 80 -23  1001.3  0.3  748  325           
18 16.04.18 340 (С) 4000 м  слаб. снег  10/5 2000 м средняя, верхняя 
[Ac trans|Cs]
-18.6 -21.2 80 -21  1001.9  0.6  749  325           
00 17.04.18 340 (С) 20000 м  {снег}  10/8 2000 м средняя, верхняя 
[Ac trans|Cs]
-18.5 -21.1 80 -23  1002.9  0.8  749  325  -19.2    0.3  74  неравномерный
сухой снег
100% 
06 17.04.18 360 (С) 20000 м  {снег}  8/0 верхняя 
[Ci fib]
-19 -21.6 80 -24  1005.8  1.4  751  327           
09 17.04.18 340 (С) 20000 м  позёмок  5/5 600 м 
[Sc]
-16.7 -19.3 80 -23  1006.8  1.1  752  324           
12 17.04.18 340 (С) 20000 м    3/3 2000 м средняя 
[Ac trans]
-17.7 -21 75 -24  1007.8  0.9  753  326    -16.1  0.0     
15 17.04.18 340 (С) 20000 м    4/4 2000 м средняя 
[Ac trans]
-18.4 -21.7 75 -21  1008  0.2  753  327           
21 17.04.18 тихо ()   20000 м    10/6 2000 м средняя, верхняя 
[Ac trans|Cs]
-20.3 -23.6 75 -20  1007.4  -0.6  753  329           
00 18.04.18 090 (В) 20000 м    3/0 верхняя 
[Ci fib]
-26.5 -29.7 74 -30  1007  -0.5  752  338  -26.7      74  неравномерный
сухой снег
100% 
03 18.04.18 130 (ЮВ) 20000 м    3/3 2000 м средняя, верхняя 
[Ac trans|Ci fib]
-23.2 -25.7 80 -29  1006.3  -0.7  752  333           
06 18.04.18 130 (ЮВ) 20000 м    9/0 верхняя 
[Ci]
-20.4 -21.6 90 -28  1005.1  -1.1  751  329           
09 18.04.18 140 (ЮВ) 20000 м  позёмок  10/0 верхняя 
[Cs]
-17.7 -18.9 90 -26  1003.8  -1.3  750  325           
12 18.04.18 140 (ЮВ) 11-13{13}  20000 м  позёмок  10/0 верхняя 
[Cs]
-16 -17.9 85 -25  1002.1  -1.6  749  322    -16       
00 19.04.18 160 (Ю) 12-15{15}  20000 м  слаб. снег  10/10 300 м 
[Sc]
-9.4 -10.6 91 -17  997.9  -0.1  746  312  -16.1    76  неравномерный
сухой снег
100% 
12 19.04.18 160 (Ю) 11-14{17}  4000 м  метель  8/5 300 м средняя, верхняя 
[Sc|Ac trans|Ci fib]
-7.8 -10 84 -15  1000.3  0.6  747  311    -7.8  0.5     
00 20.04.18 090 (В) 20000 м  позёмок  10/10 2000 м 
[Ac und]
-8.6 -10.5 86 -14  1000.8  748  312  -8.7      76  неравномерный
сухой снег
100% 
Время (UTC), дата Ветер
(°,м/с) 
Видим.   Явления Облачность Т
(°С)
Тd
(°С)
f(%) Тe
(°С)
Pmin
(гПа)
dP
(гПа)
Po
(мм)
O2
(г/м3)
Тmin Tmax R s Состояние
почвы

Для получения пояснительной информации подведите курсор к названию столбца.

ПОГОДА в Карауле - архив

Всё, что Вы хотите узнать о погоде в Карауле - удобно и подробно!

Выберите нужную дату (начиная с 1 января 2015* года) и нажмите кнопку "Найти".
Будут отображены архивные сводки погоды по пункту Караул, начиная с указанной даты.


Отображать данные в формате CSV (для использования в таблицах Excel)


Внимание! Наш архив погоды предназначен исключительно для личного некоммерческого использования в познавательных целях. Если Вам необходимы официальные справки о состоянии погоды (для производственных, юридических, коммерческих и т.п. целей), обращайтесь в органы Росгидромета.

*Примечание: данная дата относится к архиву по метеостанциям СССР (Россия, СНГ, Балтия).
Архив по метеостанциям Зарубежной Европы и Азии (кроме Китая) хранится 10 дней, по другим регионам земного шара (Китай, Африка, Америка, Австралия, Океания) - 1 день.

Караул - район местоположения метеостанции


Название, широта, долгота, высота метеостанции:
Караул 70.2°ш. 83.1°д. 29 м над ур. моря [Российская Федерация]

Дополнительная информация

В oтличие oт бoльшинства пoгoдных сайтoв мы публикуем пoдрoбную метеoинфoрмацию в детальнoм прoфессиoнальнoм фoрмате.

Характеристики температуры и влажнoсти вoздуха измеряются на высoте 2 м в тени вдали oт зданий и деревьев.
Скoрoсть ветра измеряется на высoте 10 м (на урoвне рoста челoвека скoрoсть ветра ниже в 1.5-2 раза). Если метеoстанция нахoдится в гoрoде или в лесу, тo скoрoсть ветра занижена на 2-4 м/с пo сравнению с oткрытым местoм. Скoрoсть ветра над акватoриями крупных рек и oзёр, а также на вершинах хoлмoв на 2-5 м/с выше, чем в oбычных услoвиях.
Атмoсфернoе давление в разных тoчках местнoсти мoжет значительнo oтличаться oт давления на метеoстанции, в зависимoсти oт услoвий рельефа (при пoдъёме на 10 м давление пoнижается примернo на 1 мм рт.ст.).